User: anonymous
Location: Unspecified
(0.0000°N, 0.0000°E)
Time: 16:52:38
(UTC+02:00)
Language:

NOAA 12 - Orbit

View from above orbital plane
View from above orbital plane
View from above satellite
View from above satellite

Ground track
Ground track

The orbit data is extracted from the following two-line orbital elements,

1 21263U 91032A   14110.46219194  .00000156  00000-0  84271-4 0  2421
2 21263 098.6684 137.9606 0014364 050.3609 054.3135 14.25651065192334
Epoch (UTC): 20 April 2014 11:05:33
Eccentricity: 0.0014364
inclination: 98.6684°
perigee height: 796 km
apogee height: 816 km
right ascension of ascending node: 137.9606°
argument of perigee: 50.3609°
revolutions per day: 14.25651065
mean anomaly at epoch: 54.3135°
orbit number at epoch: 19233

The dashed part of the orbit path shows where the satellite is in the earth's shadow,  

DLR